Omaha Offutt, NE

2:40 PM CDT on July 25, 2017 (GMT -0500)
Offutt Air Force Base

Weather History for KOFF - May, 2014

Change the Weather History Date:

Thursday, May 22, 2014

  Actual Average Record
Temperature  
Mean Temperature 63 °F -  
Max Temperature 73 °F 72 °F 91 °F (2000)
Min Temperature 53 °F 53 °F 42 °F (2015)
Degree Days  
Heating Degree Days 2    
Growing Degree Days 13 (Base 50)    
Moisture  
Dew Point 56 °F    
Average Humidity 89    
Maximum Humidity 100    
Minimum Humidity 48    
Precipitation  
Precipitation 0.58 in - - ()
Sea Level Pressure  
Sea Level Pressure 30.16 in    
Wind  
Wind Speed 7 mph (NE)    
Max Wind Speed 33 mph    
Max Gust Speed 45 mph    
Visibility 8 miles    
Events Rain    
Averages and records for this station are not official NWS values.
T = Trace of Precipitation, MM = Missing Value Source: NWS Daily Summary

Daily Weather History Graph

Daily Weather History Graph

Search for Another Location

Airport or City:

Trip Planner

Search our weather history database for the weather conditions in past years. The results will help you decide how hot, cold, wet, or windy it might be!

Date:

Astronomy

May. 22, 2014 Rise Set
Actual Time 5:59 AM CDT 8:41 PM CDT
Civil Twilight 5:27 AM CDT 9:13 PM CDT
Nautical Twilight 4:47 AM CDT 9:54 PM CDT
Astronomical Twilight 4:01 AM CDT 10:40 PM CDT
Moon 2:22 AM CDT (5/22) 2:27 PM CDT (5/22)
Length of Visible Light 15h 46m
Length of Day
14h 42m
Last Quarter, 37% of the Moon is Illuminated
May 22
Last Quarter
May 28
New
Jun 5
First Quarter
Jun 12
Full
Jun 19
Last Quarter

Hourly Weather History & Observations

Time (CDT) Temp. Dew Point Humidity Pressure Visibility Wind Dir Wind Speed Gust Speed Precip Events Conditions
12:58 AM 66.4 °F 45.9 °F 48% 30.07 in 10.0 mi NNE 10.4 mph - N/A   Clear
1:58 AM 64.4 °F 46.6 °F 52% 30.09 in 10.0 mi NE 4.6 mph - N/A   Clear
2:58 AM 62.8 °F 46.6 °F 55% 30.09 in 10.0 mi NE 6.9 mph - N/A   Clear
3:58 AM 62.6 °F 46.4 °F 55% 30.09 in 10.0 mi NE 10.4 mph - N/A   Partly Cloudy
4:58 AM 61.5 °F 46.4 °F 58% 30.13 in 10.0 mi NNE 6.9 mph - N/A   Scattered Clouds
5:25 AM 62.6 °F 46.4 °F 55% 30.20 in 10.0 mi West 9.2 mph - N/A Rain Light Rain
5:55 AM 59.0 °F 53.6 °F 82% 30.26 in 7.0 mi SW 16.1 mph - N/A Rain Rain
5:58 AM 59.5 °F 54.1 °F 82% 30.26 in 6.0 mi SW 12.7 mph - 0.01 in Rain Heavy Rain
6:03 AM 59.0 °F 55.4 °F 88% 30.25 in 5.0 mi SW 11.5 mph - N/A Rain Heavy Rain
6:23 AM 57.2 °F 57.2 °F 100% 30.22 in 4.0 mi Calm Calm - N/A Rain Heavy Rain
6:48 AM 55.4 °F 55.4 °F 100% 30.19 in 2.5 mi ENE 11.5 mph - N/A Rain Rain
6:53 AM 55.4 °F 55.4 °F 100% 30.18 in 4.0 mi ENE 12.7 mph - N/A Rain Light Rain
6:58 AM 55.8 °F 55.8 °F 100% 30.18 in 6.0 mi ENE 11.5 mph - 0.23 in Rain Rain
7:13 AM 55.4 °F 55.4 °F 100% 30.17 in 2.0 mi NE 12.7 mph - N/A Rain Heavy Rain
7:23 AM 55.4 °F 55.4 °F 100% 30.17 in 3.0 mi NE 11.5 mph - N/A Rain Heavy Rain
7:58 AM 56.1 °F 56.1 °F 100% 30.19 in 4.0 mi SE 3.5 mph - 0.27 in Rain Heavy Rain
8:28 AM 55.4 °F 55.4 °F 100% 30.19 in 10.0 mi North 3.5 mph - N/A Rain Light Rain
8:50 AM 55.4 °F 55.4 °F 100% 29.97 in 4.0 mi NE 33.4 mph 42.6 mph N/A Rain Rain
8:58 AM 55.4 °F 55.2 °F 99% 29.99 in 9.0 mi NE 24.2 mph 44.9 mph 0.07 in Rain Light Rain
9:04 AM 55.4 °F 55.4 °F 100% 30.04 in 10.0 mi NNE 13.8 mph 42.6 mph N/A   Partly Cloudy
9:58 AM 59.9 °F 58.6 °F 96% 30.14 in 10.0 mi SSW 5.8 mph - 0.00 in   Clear
10:58 AM 59.4 °F 59.0 °F 99% 30.21 in 10.0 mi WNW 5.8 mph - 0.00 in   Clear
11:58 AM 60.4 °F 58.5 °F 93% 30.21 in 10.0 mi WNW 6.9 mph - N/A   Partly Cloudy
12:14 PM 60.8 °F 57.2 °F 88% 30.20 in 10.0 mi NW 4.6 mph - N/A Rain Light Rain
12:53 PM 60.8 °F 59.0 °F 94% 30.20 in 10.0 mi North 2.3 mph - N/A Rain Light Rain
12:58 PM 60.3 °F 59.7 °F 98% 30.21 in 10.0 mi North 3.5 mph - 0.00 in Rain Light Rain
1:16 PM 60.8 °F 60.8 °F 100% 30.20 in 10.0 mi Variable 1.2 mph - N/A   Clear
1:58 PM 62.4 °F 59.2 °F 89% 30.19 in 10.0 mi NE 2.3 mph - 0.00 in   Partly Cloudy
2:58 PM 66.2 °F 59.9 °F 80% 30.17 in 10.0 mi East 5.8 mph - N/A   Partly Cloudy
3:58 PM 68.2 °F 59.7 °F 74% 30.17 in 10.0 mi Variable 3.5 mph - N/A   Clear
4:58 PM 70.9 °F 59.9 °F 68% 30.15 in 10.0 mi Variable 2.3 mph - N/A   Clear
5:58 PM 73.2 °F 59.9 °F 63% 30.13 in 10.0 mi East 3.5 mph - N/A   Clear
6:58 PM 72.9 °F 59.0 °F 62% 30.11 in 10.0 mi East 4.6 mph - N/A   Clear
7:58 PM 69.4 °F 61.2 °F 75% 30.13 in 10.0 mi ESE 3.5 mph - N/A   Clear
8:58 PM 63.1 °F 61.5 °F 94% 30.13 in 10.0 mi Calm Calm - N/A   Clear
9:58 PM 57.4 °F 57.4 °F 100% 30.15 in 10.0 mi ENE 2.3 mph - N/A   Clear
10:18 PM 57.2 °F 57.2 °F 100% 30.14 in 5.0 mi Calm Calm - N/A   Clear
10:28 PM 55.4 °F 55.4 °F 100% 30.15 in 10.0 mi Calm Calm - N/A   Clear
10:33 PM 55.4 °F 55.4 °F 100% 30.15 in 2.0 mi Calm Calm - N/A   Clear
10:38 PM 55.4 °F 55.4 °F 100% 30.15 in 1.2 mi Calm Calm - N/A   Clear
10:43 PM 57.2 °F 57.2 °F 100% 30.15 in 2.0 mi Calm Calm - N/A   Clear
10:48 PM 57.2 °F 57.2 °F 100% 30.16 in 8.0 mi Calm Calm - N/A   Clear
10:58 PM 56.7 °F 56.7 °F 100% 30.17 in 9.0 mi Calm Calm - N/A   Clear
11:03 PM 57.2 °F 57.2 °F 100% 30.16 in 8.0 mi Calm Calm - N/A   Clear
11:08 PM 55.4 °F 55.4 °F 100% 30.16 in 3.0 mi Calm Calm - N/A   Clear
11:13 PM 55.4 °F 55.4 °F 100% 30.17 in 2.0 mi Calm Calm - N/A   Clear
11:23 PM 55.4 °F 55.4 °F 100% 30.16 in 4.0 mi Calm Calm - N/A   Clear
11:28 PM 53.6 °F 53.6 °F 100% 30.16 in 10.0 mi Calm Calm - N/A   Clear
11:38 PM 55.4 °F 55.4 °F 100% 30.17 in 8.0 mi Calm Calm - N/A   Clear
11:48 PM 55.4 °F 55.4 °F 100% 30.17 in 10.0 mi Calm Calm - N/A   Clear
11:58 PM 54.3 °F 54.3 °F 100% 30.18 in 10.0 mi Calm Calm - N/A   Clear